Weather History for KAPA - October, 2013

Change the Weather History Date:

Wednesday, October 23, 2013

  Actual Average (WUND) Record (WUND)
Temperature  
Mean Temperature 49 °F -  
Max Temperature 63 °F - - (-1)
Min Temperature 34 °F - - (-1)
Degree Days  
Heating Degree Days 16    
Month to date heating degree days 407  
Moisture  
Dew Point 30 °F    
Average Humidity 49    
Maximum Humidity 70    
Minimum Humidity 27    
Precipitation  
Precipitation 0.00 in - - ()
Month to date precipitation 0.28  
Year to date precipitation 17.09  
Sea Level Pressure  
Sea Level Pressure 30.14 in    
Wind  
Wind Speed 6 mph (ESE)    
Max Wind Speed 14 mph    
Max Gust Speed 18 mph    
Visibility 10 miles    
Events      
Averages and records for this station are not official NWS values.
T = Trace of Precipitation, MM = Missing Value Source: NWS Daily Summary

Daily Weather History Graph

Daily Weather History Graph

Search for Another Location

Airport or City:

Trip Planner

Search our weather history database for the weather conditions in past years. The results will help you decide how hot, cold, wet, or windy it might be!

Date:

Astronomy

Oct. 23, 2013 Rise Set
Actual Time 7:18 AM MDT 6:08 PM MDT
Civil Twilight 6:50 AM MDT 6:35 PM MDT
Nautical Twilight 6:19 AM MDT 7:07 PM MDT
Astronomical Twilight 5:48 AM MDT 7:38 PM MDT
Moon 9:42 PM MDT (10/23) 11:36 AM MDT (10/23)
Length of Visible Light 11h 45m
Length of Day
10h 50m
Waning Gibbous, 79% of the Moon is Illuminated
Oct 23
Waning Gibbous
Oct 26
Last Quarter
Nov 3
New
Nov 9
First Quarter
Nov 17
Full

Hourly Weather History & Observations

Time (MDT) Temp. Windchill Dew Point Humidity Pressure Visibility Wind Dir Wind Speed Gust Speed Precip Events Conditions
12:53 AM 39.9 °F 35.1 °F 28.9 °F 65% 30.11 in 10.0 mi ESE 6.9 mph - N/A   Clear
1:53 AM 39.9 °F 37.8 °F 28.0 °F 63% 30.11 in 10.0 mi SSE 3.5 mph - N/A   Clear
2:53 AM 37.9 °F 35.5 °F 28.0 °F 68% 30.11 in 10.0 mi SE 3.5 mph - N/A   Clear
3:53 AM 39.0 °F 36.8 °F 27.0 °F 62% 30.10 in 10.0 mi SE 3.5 mph - N/A   Clear
4:53 AM 35.1 °F 30.1 °F 27.0 °F 72% 30.12 in 10.0 mi South 5.8 mph - N/A   Clear
5:53 AM 42.1 °F 40.2 °F 26.1 °F 53% 30.11 in 10.0 mi SSW 3.5 mph - N/A   Clear
6:53 AM 39.9 °F 35.8 °F 27.0 °F 60% 30.13 in 10.0 mi South 5.8 mph - N/A   Clear
7:53 AM 39.9 °F 36.7 °F 26.1 °F 58% 30.16 in 10.0 mi ESE 4.6 mph - N/A   Clear
8:53 AM 46.9 °F - 32.0 °F 56% 30.16 in 10.0 mi Calm Calm - N/A   Clear
9:53 AM 54.0 °F - 33.1 °F 45% 30.15 in 10.0 mi Calm Calm - N/A   Clear
10:53 AM 57.9 °F - 28.9 °F 33% 30.14 in 10.0 mi NE 6.9 mph - N/A   Clear
11:53 AM 60.1 °F - 27.0 °F 28% 30.14 in 10.0 mi ENE 6.9 mph - N/A   Clear
12:53 PM 60.1 °F - 28.0 °F 30% 30.14 in 10.0 mi NE 6.9 mph - N/A   Clear
1:53 PM 61.0 °F - 30.0 °F 31% 30.11 in 10.0 mi ENE 4.6 mph - N/A   Clear
2:53 PM 61.0 °F - 28.9 °F 30% 30.11 in 10.0 mi East 5.8 mph - N/A   Partly Cloudy
3:53 PM 61.0 °F - 30.0 °F 31% 30.11 in 10.0 mi ENE 6.9 mph - N/A   Partly Cloudy
4:53 PM 60.1 °F - 30.9 °F 33% 30.13 in 10.0 mi ENE 8.1 mph - N/A   Partly Cloudy
5:53 PM 57.0 °F - 30.9 °F 37% 30.12 in 10.0 mi East 5.8 mph - N/A   Partly Cloudy
6:53 PM 53.1 °F - 32.0 °F 45% 30.16 in 10.0 mi ESE 4.6 mph - N/A   Clear
7:53 PM 48.9 °F - 33.1 °F 54% 30.19 in 10.0 mi SSE 8.1 mph - N/A   Clear
8:53 PM 48.9 °F - 32.0 °F 52% 30.18 in 10.0 mi SSE 9.2 mph - N/A   Clear
9:53 PM 41.0 °F 35.8 °F 32.0 °F 70% 30.19 in 10.0 mi South 8.1 mph - N/A   Clear
10:53 PM 43.0 °F 37.7 °F 32.0 °F 65% 30.18 in 10.0 mi SE 9.2 mph - N/A   Clear
11:53 PM 45.0 °F 38.5 °F 30.0 °F 56% 30.16 in 10.0 mi SE 13.8 mph - N/A   Clear